Find Starlink 35511

NORAD ID: 66344 Int'l Des: 2025-253 Owner: SPXS Country: US Constellation: starlink operational
LEOCIRCULAR

現在のビュー

3D地球を読み込み中...

Starlink 35511について

説明を読み込み中...

次回通過

Passes for default location (London). Set your location on the main map for personalized predictions.

高度履歴

Loading altitude history...

軌道要素

1 66344U 25253AB 26159.41249260 .00037060 00000-0 13480-2 0 9995
2 66344 43.0018 59.7777 0001192 275.0822 84.9894 15.27616640 34122
Epoch: Jun 8, 2026 • Age: 14 hours

現在のステータス

高度 486.7 km
速度 7.63 km/s
衛星直下点 43.06°N, 121.87°W
打ち上げ日 Nov 6, 2025
運用期間 0.5 years
タイプ internet

技術仕様

分類 Payload
質量 575.00 kg
乾燥質量 530.00 kg
総質量 575.00 kg
長さ 0.30 m
直径 4.10 m
スパン 29.00 m
形状 Box + pan
製造者 SPXS
バスタイプ Starlink V2MO
フェーズステータス In Orbit
所有者/国 SPXS/US

Most Searched